Weather in Squaw Hill

United States     39°20′27″N   122°41′06″W
temp.,
°C
wind,
m/s
gust,
m/s
humid.,
%
clouds,
%
prec.,
mm/h
press.,
hPa
HPBL,
m
18 may, tue
tue1823:00+9wnw47795 0.0 1018121
02:00+8nw36720 0.0 1018103
05:00+7nw36611 0.0 1019100
08:00+13wnw34373 0.0 1018267
11:00+19w34250 0.0 10171183
14:00+22w45210 0.0 10141587
17:00+20w44270 0.0 10131156
20:00+11w47540 0.0 1014301
19 may, wed
wed1923:00+6wnw47780 0.0 1016149
02:00+5wnw47685 0.0 1015155
05:00+4nw36540 0.0 1015119
08:00+9nw23300 0.0 1014320
11:00+15wsw34200 0.0 10121219
14:00+18w45180 0.0 10101725
17:00+15w57230 0.0 10091442
20:00+9w59340 0.0 1011695
20 may, thu
thu2023:00+1wnw49620 0.0 1016259
02:00−1nw48702 0.0 1017170
05:00−2nw36783 0.0 1018103
08:00+5wnw34461 0.0 1017372
11:00+12wnw27172 0.0 10152792
14:00+15nw2515100 0.0 10133833
17:00+13sse142198 0.0 10122846
20:00+9wnw34423 0.0 1014128
21 may, fri
fri2123:00+3nw36742 0.0 1017108
02:00+3n22642 0.0 101723
05:00+3nnw225593 0.0 101614
08:00+10n12290 0.0 1015514
11:00+16wsw23185 0.0 10142326
14:00+18w341896 0.0 10123431
17:00+9nw2480100 2.4 1014317
20:00+6nw239187 6.7 101572
22 may, sat
sat2223:00+5nnw32871 6.8 101735
02:00+5n227871 0.0 101720
05:00+5nnw1171100 0.0 101611
08:00+10e01576 0.0 1016176
11:00+16sse223370 0.0 10152262
14:00+18e113299 0.0 10142285
17:00+16ssw223664 0.0 10141893
20:00+12w115759 0.0 101512